Probability
0 0 0 0 0 0 0 0 0 0 0 0 0 0 0 0 0 1 2 3 3 4 10 16 21 24 25 25 25 24 21 15 10 7 6 6 4 3 3 3 3 3 3 3 3 1 0 0 0
0 0 0 0 0 0 0 0 0 0 0 0 0 0 0 0 1 2 4 5 5 8 12 17 21 24 25 24 24 25 22 16 11 8 7 6 4 3 3 3 3 3 3 3 3 2 1 0 0
0 0 0 0 0 0 0 0 0 0 0 0 0 0 0 0 1 3 5 7 9 11 14 18 22 24 23 23 23 23 21 17 13 11 8 6 5 4 4 4 3 3 3 3 3 3 2 1 0
0 0 0 0 0 0 0 0 0 0 0 0 0 0 0 1 2 4 6 9 12 13 14 18 22 23 22 20 19 20 19 16 15 14 11 8 6 4 5 5 4 4 2 2 2 3 3 2 1
0 0 0 0 0 0 0 0 0 0 0 0 0 0 1 3 5 6 8 10 13 13 14 18 23 23 20 17 16 15 15 15 14 15 13 10 7 5 4 5 5 4 2 1 1 1 2 2 1
0 0 0 0 0 0 0 0 0 0 0 0 0 0 1 4 6 7 8 9 11 12 14 17 21 21 18 17 14 13 13 14 14 14 12 10 8 6 5 6 6 5 3 2 1 1 2 2 1
0 0 0 0 0 0 0 0 0 0 0 0 0 0 1 3 4 5 6 8 9 11 13 15 16 16 15 15 12 11 11 12 13 13 11 8 7 8 7 8 8 6 4 3 1 1 2 3 3
0 0 0 0 0 0 0 0 0 0 0 0 0 1 2 3 4 5 6 8 10 11 13 14 13 12 11 10 9 8 8 8 9 10 9 7 7 8 9 9 9 8 5 3 3 2 3 3 3
0 0 0 0 0 0 0 0 0 0 0 0 1 2 3 5 6 7 8 8 9 11 12 11 11 10 9 7 6 5 4 4 5 6 6 6 6 7 7 7 8 8 6 4 3 3 3 3 3
0 0 0 0 0 0 0 0 0 0 0 1 2 4 6 8 9 9 8 7 7 8 9 8 9 9 7 6 5 4 3 3 3 3 3 3 3 4 4 5 6 7 6 4 3 3 3 3 2
0 0 0 0 0 0 0 0 0 0 0 1 3 5 6 8 9 9 8 5 5 5 6 6 7 6 4 4 4 4 3 3 3 3 1 1 1 1 3 3 4 4 4 3 3 3 2 1 1
0 0 0 0 0 0 0 0 0 0 0 1 3 4 5 6 8 8 7 6 4 4 4 4 5 3 2 2 3 3 3 4 3 3 1 0 0 1 2 3 3 3 3 3 3 3 2 1 0
0 0 0 0 0 0 0 0 0 0 0 2 4 4 4 4 6 6 6 6 5 4 4 3 3 2 1 1 1 3 4 4 4 3 2 2 2 1 2 3 3 3 3 3 3 3 2 1 1
0 0 0 0 0 0 0 0 0 0 1 2 4 4 3 3 4 4 4 5 6 6 4 3 3 2 2 1 1 2 3 4 3 3 3 3 3 3 3 3 3 3 3 2 2 2 2 1 0
0 0 0 0 0 0 0 0 0 0 1 2 3 3 3 3 3 3 3 4 6 5 4 3 3 3 3 1 1 1 2 3 3 2 2 2 2 2 2 2 2 2 1 1 1 1 1 0 0
0 0 0 0 0 0 0 0 0 0 0 1 2 3 3 3 3 3 3 4 5 4 3 3 2 3 3 2 0 0 1 1 2 2 2 1 1 1 1 1 1 1 0 0 0 0 0 0 0
0 0 0 0 0 0 0 0 0 0 0 0 1 2 2 2 2 2 3 3 4 3 3 2 1 1 2 2 1 0 0 0 1 2 2 1 1 0 0 0 0 0 0 0 0 0 0 0 0
0 0 0 0 0 0 0 0 0 0 0 0 0 1 1 1 1 1 1 3 3 3 3 2 1 0 1 2 2 1 0 0 0 1 2 3 2 1 0 0 0 0 0 0 0 0 0 0 0
0 0 0 0 0 0 0 0 0 0 0 0 0 0 0 0 0 0 1 2 3 3 3 3 1 0 0 1 2 2 1 1 1 1 2 3 3 2 1 0 0 0 0 0 0 0 0 0 0
0 0 0 0 0 0 0 0 0 0 0 0 0 0 0 0 0 0 1 2 3 3 3 3 2 0 0 1 2 2 2 2 2 2 2 3 3 3 1 0 0 0 0 0 0 0 0 0 0
0 0 0 0 0 0 0 0 0 0 0 0 0 0 0 0 0 0 1 2 3 3 3 3 1 0 0 0 1 1 3 3 3 2 2 2 2 3 2 1 0 0 0 0 0 0 0 0 0
0 0 0 0 0 0 0 0 0 0 0 0 0 0 0 0 0 0 1 2 3 3 3 3 1 0 0 0 0 1 2 3 3 3 3 2 2 2 3 2 1 0 0 0 0 0 0 0 0
0 0 0 0 0 0 0 0 0 0 0 0 0 0 0 0 0 0 1 2 2 3 3 2 1 0 0 0 0 0 1 3 3 3 3 3 2 2 3 3 2 1 0 0 0 0 0 0 0
0 0 0 0 0 0 0 0 0 0 0 0 0 0 0 0 0 0 0 1 1 1 2 1 1 0 0 0 0 0 1 2 3 3 3 3 3 3 3 3 3 2 1 0 0 0 0 0 0
0 0 0 0 0 0 0 0 0 0 0 0 0 0 0 0 0 0 0 0 0 1 1 1 0 0 0 0 0 0 0 1 2 3 3 3 3 3 3 3 3 3 2 1 0 0 0 0 0
0 0 0 0 0 0 0 0 0 0 0 0 0 0 0 0 0 0 0 0 0 0 0 0 0 0 0 0 0 0 0 0 1 2 3 3 3 3 3 3 3 2 2 1 0 0 0 0 0
0 0 0 0 0 0 0 0 0 0 0 0 0 0 0 0 0 0 0 0 0 0 0 0 0 0 0 0 0 0 0 0 0 1 2 3 3 3 3 3 3 2 1 1 1 1 0 0 0
0 0 0 0 0 0 0 0 0 0 0 0 0 0 0 0 0 0 0 0 0 0 0 0 0 0 0 0 0 0 0 0 0 0 1 2 3 3 3 3 2 1 0 1 2 2 1 0 0
0 0 0 0 0 0 0 0 0 0 0 0 0 0 0 0 0 0 0 0 0 0 0 0 0 0 0 0 0 0 0 0 0 0 0 1 2 2 2 1 1 0 0 0 1 2 1 1 1
0 0 0 0 0 0 0 0 0 0 0 0 0 0 0 0 0 0 0 0 0 0 0 0 0 0 0 0 0 0 0 0 0 0 0 0 1 1 1 0 0 0 0 0 0 1 1 1 1
Wind_Speed
2 2 2 4 6 4 4 6 4 2 2 2 3 7 8 5 4 5 2 6 9 9 8 11 14 13 13 13 13 13 13 13 12 12 12 12 12 12 12 12 12 11 10 10 10 10 10 9 9
1 1 4 5 5 3 6 6 6 5 4 4 4 6 6 4 2 6 4 8 11 10 8 10 14 14 14 14 13 13 13 12 12 12 12 12 12 12 11 11 11 11 10 10 9 9 9 8 8
1 1 4 4 4 6 6 5 7 4 2 3 3 4 5 5 4 4 6 10 10 8 8 10 14 14 14 14 13 13 13 12 12 12 11 11 11 11 11 11 10 10 10 9 8 8 7 7 6
2 3 4 3 5 6 5 3 3 2 1 3 5 5 3 1 4 5 9 11 10 8 7 10 14 14 14 13 13 12 12 12 12 11 11 11 11 11 10 10 10 9 9 8 8 7 7 6 6
3 4 3 2 6 6 5 5 2 1 2 2 5 5 2 3 6 10 10 11 11 8 6 9 14 14 13 13 12 12 12 12 11 11 10 10 10 10 9 9 9 8 8 7 7 6 6 5 5
3 4 4 4 6 5 5 4 2 2 2 3 6 6 2 1 7 9 10 10 9 8 7 8 12 13 13 12 12 11 11 11 10 10 10 9 9 9 9 8 8 7 7 6 6 5 5 5 4
4 4 5 5 4 4 4 2 4 4 3 3 6 7 3 2 5 9 9 9 8 8 7 5 6 8 11 12 11 11 10 10 10 10 9 9 8 8 8 7 6 6 6 5 5 4 4 4 4
4 4 3 4 4 4 3 1 1 4 3 2 5 10 7 6 6 9 8 7 7 6 6 5 5 5 5 6 9 10 9 9 9 9 8 8 7 7 7 6 5 5 5 5 4 3 3 3 3
3 3 4 5 5 3 1 1 2 1 4 3 2 5 7 10 10 11 8 6 6 6 5 5 5 5 4 4 6 7 7 7 7 6 7 6 3 3 3 4 5 5 4 4 3 3 3 2 2
4 5 7 4 2 2 1 2 1 3 3 3 3 3 8 10 12 12 11 9 7 7 5 4 5 5 4 4 4 3 3 3 3 3 3 3 2 2 3 4 4 4 3 3 2 2 2 2 1
6 7 5 3 2 1 1 1 1 4 2 4 7 8 10 9 10 10 9 9 8 7 6 5 5 5 4 3 3 2 2 2 2 3 3 3 2 2 2 1 1 1 2 1 1 1 1 0 0
5 6 5 3 1 0 1 0 1 2 5 4 8 11 11 10 11 11 10 9 8 7 6 5 5 4 4 4 3 2 2 2 2 2 3 3 2 2 1 1 1 1 0 0 0 0 1 1 1
5 4 4 4 2 1 1 1 1 4 4 2 6 8 11 11 9 7 8 8 7 7 7 6 5 5 4 3 3 3 2 2 2 2 2 3 2 2 1 1 1 0 0 0 0 0 1 1 1
5 4 3 3 3 2 2 3 2 7 3 3 7 9 9 10 9 7 7 7 8 8 8 6 6 5 5 3 3 3 2 2 2 2 2 3 2 2 2 1 1 1 0 0 1 1 1 1 1
2 2 3 4 4 3 2 5 7 7 3 4 6 8 9 8 8 9 10 9 9 8 8 7 6 5 5 4 3 3 3 3 2 2 2 2 2 2 2 2 1 1 1 1 0 1 1 1 2
2 2 4 5 5 5 6 10 8 5 6 7 7 7 7 7 9 9 9 8 8 8 7 7 6 6 5 4 3 2 2 3 2 2 2 2 3 3 2 2 2 1 1 1 0 0 1 1 2
2 4 6 4 4 5 7 9 7 4 7 8 8 7 7 7 7 7 8 8 9 9 9 7 6 6 5 4 3 2 2 2 2 2 2 2 3 3 2 2 2 1 1 1 1 1 1 1 2
7 5 5 6 4 5 6 8 8 5 6 8 7 7 7 8 9 8 7 8 8 8 8 7 6 5 4 3 2 1 1 1 1 2 2 2 2 3 2 2 2 2 1 1 1 1 1 1 2
5 5 4 5 4 5 8 10 10 7 5 6 7 7 8 9 8 6 7 7 7 7 7 7 6 5 4 3 2 2 1 1 1 2 3 3 2 2 2 2 2 2 2 2 2 1 1 1 1
4 4 4 3 1 3 5 9 9 8 7 8 9 10 10 8 5 5 6 6 7 8 8 7 7 6 5 3 3 2 2 1 2 2 2 2 2 2 2 3 2 3 2 2 2 1 1 1 0
8 7 5 3 2 2 1 7 7 6 5 5 6 8 8 10 9 8 7 7 7 8 9 8 7 6 5 4 2 2 1 1 0 1 2 2 2 3 3 3 2 2 3 3 3 3 2 2 1
8 6 6 4 2 3 2 5 7 5 5 6 6 7 8 8 8 8 9 8 9 8 7 7 6 6 5 5 4 4 3 2 3 2 2 2 2 3 3 3 3 3 2 3 3 2 2 3 2
5 3 4 4 4 2 2 3 8 3 5 7 6 7 7 7 8 9 9 9 8 7 7 6 6 5 4 4 5 4 2 2 1 1 2 2 2 3 3 3 3 3 3 3 3 3 2 2 3
4 4 4 3 3 5 8 6 8 5 7 6 5 4 5 6 6 7 6 6 6 5 5 5 5 4 4 4 4 4 3 2 1 2 2 2 2 2 3 3 3 3 3 3 4 4 4 3 3
5 6 2 0 2 8 5 6 9 7 6 6 6 4 3 4 6 6 6 6 6 6 5 5 5 4 3 3 3 3 3 3 3 3 3 3 2 2 3 3 3 3 3 4 3 3 4 4 4
6 8 7 7 7 4 3 8 7 5 3 2 3 4 4 3 4 5 6 6 6 6 5 5 5 4 3 3 2 2 2 2 2 3 3 3 3 3 3 3 3 4 4 3 3 3 4 3 4
6 5 4 4 2 2 5 4 5 2 3 3 4 5 4 3 3 4 4 5 5 5 5 5 5 4 3 3 2 1 1 1 2 2 2 2 2 2 3 3 3 3 3 3 3 3 4 3 4
4 6 4 5 6 5 4 4 4 2 2 2 3 3 3 3 3 3 3 3 3 3 3 3 4 4 3 2 2 1 1 1 1 1 2 2 3 2 2 3 3 3 3 3 3 3 3 4 4
3 3 4 3 4 5 4 5 3 4 4 4 3 3 4 4 3 3 3 3 3 3 3 3 2 2 2 1 1 1 1 1 1 1 2 2 2 2 3 3 3 3 3 2 3 3 4 4 4
3 4 6 5 4 4 3 5 3 2 3 5 4 3 4 4 4 4 4 4 4 4 3 3 2 2 1 1 1 1 0 0 0 1 2 1 1 2 3 2 3 3 3 2 3 4 4 4 5
Wind_Direction
331 18 72 62 64 67 228 240 233 240 182 171 112 107 111 108 138 157 157 145 136 138 142 139 134 131 127 122 119 117 115 112 109 108 107 106 104 103 103 103 100 99 99 99 96 98 96 95 94
38 51 63 68 104 164 247 239 228 227 195 151 102 95 87 81 84 113 134 144 135 136 137 138 133 130 126 123 120 118 116 114 111 110 109 108 106 105 104 104 101 97 95 95 95 96 95 94 95
43 97 93 95 153 190 224 232 210 226 216 151 88 69 103 127 133 141 151 139 127 131 135 138 134 131 128 125 122 119 118 117 114 112 111 111 110 107 106 103 101 97 94 92 92 92 93 92 93
82 70 68 110 215 224 221 229 187 162 89 84 106 75 73 120 158 146 137 131 123 127 132 137 134 132 129 127 124 121 119 117 116 114 114 113 112 108 105 102 101 99 97 93 91 89 90 88 89
73 95 111 210 235 245 238 241 232 173 146 109 105 99 54 351 114 125 131 131 128 128 131 137 133 132 129 128 125 122 120 119 117 115 114 114 113 111 107 103 101 99 98 96 93 89 88 88 86
80 93 135 212 238 253 255 236 204 180 159 117 108 107 106 112 118 130 131 130 131 130 127 131 133 132 130 129 126 123 122 121 120 119 117 114 112 112 110 109 105 102 100 96 92 87 87 87 82
126 135 180 203 224 248 251 219 177 171 158 165 133 113 134 170 141 133 127 124 122 123 122 119 126 128 129 128 126 124 122 121 119 118 116 111 108 109 111 110 109 106 105 101 95 88 83 78 70
149 138 200 213 207 233 261 156 163 154 164 132 120 136 170 187 145 124 117 114 115 116 118 118 115 115 120 123 124 124 122 121 118 115 112 110 108 107 106 106 107 109 107 102 96 89 84 70 55
126 120 208 214 201 217 296 96 6 53 103 73 88 161 164 145 132 123 118 113 121 122 120 121 120 119 120 123 127 124 123 123 119 115 114 109 102 103 106 103 101 103 102 97 89 77 63 49 32
135 186 217 226 202 184 48 92 124 75 76 70 49 67 119 134 138 141 146 149 148 147 143 136 131 134 133 127 115 112 111 111 109 110 113 106 103 102 98 89 93 90 88 88 78 58 41 35 10
173 199 222 257 256 183 75 16 27 120 163 178 161 150 142 142 146 151 157 158 159 155 151 147 143 141 137 128 130 115 107 107 110 118 116 110 99 88 80 79 75 73 71 70 45 29 12 11 335
189 225 218 237 259 159 165 96 4 188 204 179 166 159 156 159 165 167 166 164 160 156 156 153 146 143 144 138 138 139 133 128 128 135 130 121 114 107 108 101 81 79 93 77 46 324 314 301 282
219 235 225 227 233 223 174 202 231 254 241 167 151 160 171 175 179 176 165 159 156 158 160 160 154 150 149 143 149 142 147 145 142 136 142 139 138 141 134 131 114 94 87 123 58 308 293 294 286
210 224 249 245 233 227 208 252 217 247 215 161 163 177 184 182 176 166 161 163 167 166 166 165 159 157 148 151 155 155 157 151 142 147 155 151 152 155 155 156 162 205 217 205 198 252 270 275 280
167 196 279 246 213 212 155 270 232 229 187 191 191 188 191 192 179 177 177 173 172 170 167 167 163 153 149 151 160 156 161 153 154 166 163 160 163 166 166 170 189 219 222 221 249 337 349 323 309
130 168 237 249 192 181 159 247 250 224 185 208 206 197 195 198 194 189 181 174 170 164 165 170 163 155 153 152 154 153 158 159 169 173 174 178 179 176 171 178 201 211 194 181 220 263 326 317 311
173 199 216 251 203 172 181 238 255 224 189 211 213 204 201 204 206 199 185 177 172 169 166 168 160 160 159 152 148 152 153 162 172 173 180 189 187 183 177 192 209 196 182 196 231 247 232 291 307
193 195 205 216 215 179 204 240 260 254 204 213 212 207 202 204 211 199 189 179 171 167 163 161 156 158 147 134 119 107 120 171 176 186 194 191 193 189 184 198 207 190 179 204 213 234 259 251 276
169 176 212 230 217 185 220 241 253 255 230 220 213 209 207 212 212 188 178 168 159 158 159 161 155 160 148 141 148 156 191 213 217 211 205 197 198 199 192 204 205 195 195 207 211 220 270 298 324
211 216 231 271 249 203 234 254 257 247 229 213 208 209 208 210 197 180 171 163 163 167 169 167 166 166 168 169 170 169 176 202 222 218 215 205 198 205 200 203 209 203 196 213 215 198 206 285 23
222 212 210 217 343 347 286 283 261 258 236 226 214 204 200 197 192 185 178 177 170 170 172 172 172 169 166 155 129 92 70 47 342 253 247 232 215 214 210 209 213 213 199 208 221 204 193 220 261
228 213 200 197 168 256 182 265 271 246 249 233 225 210 203 198 188 182 178 178 178 179 172 167 167 164 160 155 157 163 176 204 223 229 240 256 236 224 218 213 214 218 215 216 222 213 215 197 231
207 185 184 191 179 240 219 224 275 257 238 240 231 217 206 192 178 178 179 177 174 169 165 162 158 157 160 164 167 170 191 216 231 235 240 253 252 235 226 219 215 218 224 224 224 224 229 215 215
146 86 69 59 103 239 215 195 263 232 224 231 234 220 199 175 167 167 163 152 150 152 150 150 150 159 160 161 167 171 183 199 214 239 237 249 253 244 237 230 219 224 231 232 227 222 225 232 233
132 116 106 250 222 241 204 199 244 246 230 210 207 195 173 157 151 146 144 143 146 148 149 149 151 156 162 161 171 181 189 198 211 224 228 236 243 248 245 238 229 233 234 236 230 226 228 229 229
178 159 168 186 206 248 204 220 245 270 248 185 163 141 118 113 133 142 152 152 153 154 152 153 157 161 164 165 181 185 188 203 226 230 226 229 233 239 242 239 240 241 236 238 233 230 233 233 230
155 187 170 141 159 216 238 257 300 349 44 80 100 100 110 111 115 129 133 140 149 154 158 159 158 158 163 165 166 177 201 217 230 244 234 237 243 247 243 243 243 250 244 237 234 234 235 238 238
157 147 133 156 170 218 249 238 234 240 204 134 118 115 104 94 86 96 107 117 134 144 142 141 148 154 159 155 170 177 213 229 229 234 251 248 249 250 249 252 249 253 251 237 231 239 240 239 249
149 160 160 162 176 173 211 254 229 201 185 160 150 137 119 108 96 88 81 85 98 94 98 105 118 123 132 149 160 157 214 231 228 246 258 253 255 256 251 256 259 261 260 253 244 247 246 247 256
184 179 158 170 211 192 180 260 315 186 151 138 133 115 108 102 91 85 79 72 72 73 73 75 88 106 131 147 141 147 114 33 263 270 275 272 277 273 261 258 262 266 266 260 259 260 258 250 259